sat.trackr.live / text

‹ back to catalog

STARLINK-36430

NORAD 67326 · 2026-002X

PAYLOAD ACTIVE UNKNOWN

§ Identity

Operator
Country
US
Launch date
2026-01-04
Launch site
AFETR
Launch vehicle
Mass (kg)
RCS (m²)

Purposes: comms

External: N2YO · Heavens-Above · Gunter

§ Orbital elements

Epoch: 2026-09-19T10:18:30.459744Z

Period
94.27 min
Inclination
43.0006°
Eccentricity
0.0000983
Mean motion
15.27582856 rev/d
Perigee alt
482.4 km
Apogee alt
483.7 km
Semi-major
6,861.2 km
B*
1.1416e-4
RAAN
310.7132°
Arg perigee
272.4016°
Mean anomaly
87.6723°
Rev number
4,087

§ Raw data

STARLINK-364301 67326U 26002X   26262.42951921  .00002881  00000+0  11416-3 0  99992 67326  43.0006 310.7132 0000983 272.4016  87.6723 15.27582856 40879

JSON: /api/v1/satellites/67326 · /tle

For live sub-satellite position, see the globe view (requires WebGL).

§ Visibility from observer

Set your observer location to see the next 7 days of passes ≥ 10°. The values pass through the URL so the page stays shareable.

No JS? Fill the form by hand. The geolocation button needs JavaScript.